N0HBJ Weather Reports


Display with metric or nautical units.
time (UTC)temp
F
wind
direction
speed
MPH
gust
MPH
rain 1hr
in
rain 24hr
in
rain mn
in
humidity
%
barometer
mb
20260508161705 59 287 6.0 14.0 0.00 0.00 0.00 26 1020.7
20260508161208 58 14 6.0 14.0 0.00 0.00 0.00 28 1020.8
20260508160435 58 311 7.0 16.0 0.00 0.00 0.00 27 1020.8
20260508155930 58 5 8.0 16.0 0.00 0.00 0.00 27 1021.0
20260508155431 57 22 9.0 18.0 0.00 0.00 0.00 31 1021.0
20260508154931 57 56 10.0 19.0 0.00 0.00 0.00 29 1021.0
20260508154431 57 5 10.0 19.0 0.00 0.00 0.00 33 1021.0
20260508153931 57 298 7.0 19.0 0.00 0.00 0.00 31 1021.0
20260508153432 56 284 4.0 12.0 0.00 0.00 0.00 32 1021.2
20260508152926 56 84 5.0 12.0 0.00 0.00 0.00 32 1021.1
20260508152658 56 211 3.0 12.0 0.00 0.00 0.00 33 1021.1
20260508151926 55 83 2.0 12.0 0.00 0.00 0.00 34 1021.1
20260508151426 55 259 3.0 7.0 0.00 0.00 0.00 36 1021.2
20260508150926 54 102 4.0 12.0 0.00 0.00 0.00 35 1021.2
20260508150428 53 130 2.0 12.0 0.00 0.00 0.00 36 1021.2
20260508145920 52 189 2.0 6.0 0.00 0.00 0.00 42 1021.2
20260508145421 51 164 3.0 7.0 0.00 0.00 0.00 45 1021.2
20260508144921 49 207 3.0 7.0 0.00 0.00 0.00 49 1021.2
20260508144420 48 264 3.0 7.0 0.00 0.00 0.00 50 1021.4
20260508144145 47 172 3.0 7.0 0.00 0.00 0.00 50 1021.4
20260508143414 46 171 4.0 6.0 0.00 0.00 0.00 54 1021.4
20260508142913 45 194 4.0 7.0 0.00 0.00 0.00 55 1021.4
20260508142412 44 167 3.0 7.0 0.00 0.00 0.00 55 1021.4
20260508141909 44 188 3.0 7.0 0.00 0.00 0.00 58 1021.4
20260508141409 43 202 4.0 7.0 0.00 0.00 0.00 58 1021.4
20260508140904 42 170 4.0 7.0 0.00 0.00 0.00 57 1021.4
20260508140632 42 184 4.0 7.0 0.00 0.00 0.00 59 1021.5
20260508135901 42 171 6.0 9.0 0.00 0.00 0.00 61 1021.5
20260508135402 41 175 6.0 10.0 0.00 0.00 0.00 62 1021.5
20260508134902 40 156 6.0 10.0 0.00 0.00 0.00 63 1021.5
20260508134400 39 180 7.0 10.0 0.00 0.00 0.00 67 1021.5
20260508134129 38 153 7.0 10.0 0.00 0.00 0.00 69 1021.4
20260508133405 36 164 4.0 7.0 0.00 0.00 0.00 73 1021.5
20260508133400 38 165 5.0 9.0 0.00 0.00 0.00 69 1021.6
20260508132359 34 165 4.0 7.0 0.00 0.00 0.00 78 1021.4
20260508131859 33 142 4.0 7.0 0.00 0.00 0.00 79 1021.4
20260508131404 32 148 3.0 5.0 0.00 0.00 0.00 78 1021.6
20260508131400 32 159 3.0 5.0 0.00 0.00 0.00 79 1021.5
20260508130356 31 221 3.0 5.0 0.00 0.00 0.00 80 1021.5
20260508125855 31 242 3.0 7.0 0.00 0.00 0.00 81 1021.5
20260508125354 31 213 4.0 7.0 0.00 0.00 0.00 81 1021.4
20260508124854 31 225 3.0 6.0 0.00 0.00 0.00 80 1021.4
20260508124354 31 192 4.0 9.0 0.00 0.00 0.00 80 1021.4
20260508123855 31 177 4.0 9.0 0.00 0.00 0.00 81 1021.4
20260508123354 30 169 4.0 8.0 0.00 0.00 0.00 80 1021.2
20260508122850 31 169 4.0 8.0 0.00 0.00 0.00 79 1021.4
20260508122619 31 161 4.0 7.0 0.00 0.00 0.00 79 1021.4
20260508121844 31 186 4.0 7.0 0.00 0.00 0.00 81 1021.2
20260508121343 30 167 4.0 7.0 0.00 0.00 0.00 81 1021.2
20260508120843 30 180 4.0 7.0 0.00 0.00 0.00 80 1021.1
20260508120338 31 146 4.0 5.0 0.00 0.00 0.00 79 1021.1
20260508115838 30 219 3.0 5.0 0.00 0.00 0.00 80 1021.1
20260508115338 30 220 3.0 5.0 0.00 0.00 0.00 79 1021.1
20260508114839 31 213 3.0 5.0 0.00 0.00 0.00 79 1021.0
20260508114337 30 177 3.0 5.0 0.00 0.00 0.00 79 1021.0
20260508113837 30 211 3.0 5.0 0.00 0.00 0.00 79 1021.1
20260508113329 30 216 2.0 5.0 0.00 0.00 0.00 80 1021.2
20260508112831 31 163 2.0 5.0 0.00 0.00 0.00 78 1021.1
20260508112330 31 200 3.0 7.0 0.00 0.00 0.00 78 1021.0
20260508111832 31 199 3.0 7.0 0.00 0.00 0.00 78 1021.2
20260508111331 31 204 4.0 5.0 0.00 0.00 0.00 77 1021.2
20260508110830 31 224 3.0 5.0 0.00 0.00 0.00 78 1021.2
20260508110324 30 250 3.0 4.0 0.00 0.00 0.00 78 1021.2
20260508105824 30 213 3.0 4.0 0.00 0.00 0.00 78 1021.2
20260508105556 30 219 3.0 5.0 0.00 0.00 0.00 78 1021.2
20260508104826 31 173 3.0 5.0 0.00 0.00 0.00 79 1021.4
20260508104325 31 175 3.0 5.0 0.00 0.00 0.00 77 1021.4
20260508103825 31 182 3.0 4.0 0.00 0.00 0.00 79 1021.2
20260508103319 31 198 3.0 5.0 0.00 0.00 0.00 78 1021.2
20260508102818 32 167 3.0 5.0 0.00 0.00 0.00 76 1021.4
20260508102318 32 147 3.0 5.0 0.00 0.00 0.00 77 1021.2
20260508101819 32 200 3.0 6.0 0.00 0.00 0.00 76 1021.4
20260508101319 32 167 4.0 6.0 0.00 0.00 0.00 76 1021.4
20260508100819 33 155 3.0 6.0 0.00 0.00 0.00 76 1021.4
20260508100313 33 173 3.0 5.0 0.00 0.00 0.00 75 1021.2
20260508095812 33 182 4.0 6.0 0.00 0.00 0.00 76 1021.2
20260508095313 32 173 5.0 8.0 0.00 0.00 0.00 77 1021.4
20260508094814 32 163 4.0 8.0 0.00 0.00 0.00 76 1021.2
20260508094313 32 176 4.0 7.0 0.00 0.00 0.00 76 1021.4
20260508093816 32 164 5.0 7.0 0.00 0.00 0.00 75 1021.4
20260508093310 33 149 5.0 7.0 0.00 0.00 0.00 74 1021.2
20260508093043 33 153 4.0 7.0 0.00 0.00 0.00 74 1021.4
20260508092313 33 146 3.0 6.0 0.00 0.00 0.00 74 1021.2
20260508091810 33 171 4.0 5.0 0.00 0.00 0.00 72 1021.4
20260508091311 34 173 4.0 7.0 0.00 0.00 0.00 71 1021.4
20260508090811 34 135 4.0 7.0 0.00 0.00 0.00 70 1021.4
20260508090310 34 169 3.0 5.0 0.00 0.00 0.00 69 1021.4
20260508090041 34 192 4.0 7.0 0.00 0.00 0.00 69 1021.4
20260508085308 34 203 5.0 8.0 0.00 0.00 0.00 67 1021.4
20260508084808 34 215 4.0 8.0 0.00 0.00 0.00 68 1021.4
20260508084307 34 209 4.0 6.0 0.00 0.00 0.00 69 1021.2
20260508083805 34 197 3.0 6.0 0.00 0.00 0.00 69 1021.2
20260508083305 33 212 4.0 7.0 0.00 0.00 0.00 68 1021.4
20260508082759 33 204 5.0 8.0 0.00 0.00 0.00 69 1021.4
20260508082258 33 213 5.0 8.0 0.00 0.00 0.00 70 1021.4
20260508081758 33 217 4.0 8.0 0.00 0.00 0.00 72 1021.5
20260508081259 32 200 5.0 8.0 0.00 0.00 0.00 72 1021.5
20260508080759 33 238 6.0 8.0 0.00 0.00 0.00 73 1021.4
20260508080259 32 267 5.0 8.0 0.00 0.00 0.00 73 1021.4
20260508075754 33 263 3.0 7.0 0.00 0.00 0.00 72 1021.4
20260508075255 33 228 2.0 4.0 0.00 0.00 0.00 70 1021.4
20260508074752 33 254 2.0 4.0 0.00 0.00 0.00 69 1021.4
20260508074253 34 253 2.0 4.0 0.00 0.00 0.00 68 1021.2
20260508073753 34 213 3.0 4.0 0.00 0.00 0.00 68 1021.4
20260508073253 34 213 3.0 6.0 0.00 0.00 0.00 65 1021.4
20260508073022 35 193 4.0 6.0 0.00 0.00 0.00 66 1021.5
20260508072523 35 192 3.0 6.0 0.00 0.00 0.00 69 1021.5
20260508071751 35 181 2.0 4.0 0.00 0.00 0.00 65 1021.6
20260508071251 36 188 3.0 6.0 0.00 0.00 0.00 66 1021.6
20260508070751 36 187 3.0 6.0 0.00 0.00 0.00 64 1021.6
20260508070251 36 180 3.0 5.0 0.00 0.00 0.00 60 1021.6
20260508065751 37 175 4.0 6.0 0.00 0.00 0.00 60 1021.6
20260508065245 37 217 4.0 6.0 0.00 0.00 0.00 60 1021.5
20260508064743 36 227 5.0 7.0 0.00 0.00 0.00 61 1021.4
20260508064244 36 218 5.0 9.0 0.00 0.00 0.00 61 1021.4
20260508063745 36 233 4.0 9.0 0.00 0.00 0.00 60 1021.4
20260508063245 37 254 3.0 7.0 0.00 0.00 0.00 59 1021.4
20260508062745 37 243 4.0 7.0 0.00 0.00 0.00 58 1021.2
20260508062238 38 260 4.0 7.0 0.00 0.00 0.00 58 1021.4
20260508061739 38 269 3.0 6.0 0.00 0.00 0.00 56 1021.4
20260508061238 39 245 3.0 5.0 0.00 0.00 0.00 55 1021.4
20260508060739 39 236 3.0 5.0 0.00 0.00 0.00 54 1021.4
20260508060239 39 236 4.0 5.0 0.00 0.00 0.00 54 1021.4
20260508055739 40 229 3.0 5.0 0.00 0.00 0.00 54 1021.4
20260508055237 40 216 3.0 4.0 0.00 0.00 0.00 55 1021.4
20260508054734 40 208 3.0 5.0 0.00 0.00 0.00 54 1021.6
20260508054235 40 209 3.0 7.0 0.00 0.00 0.00 53 1021.6
20260508053735 40 257 3.0 7.0 0.00 0.00 0.00 54 1021.6
20260508053233 40 253 3.0 5.0 0.00 0.00 0.00 53 1021.5
20260508053003 41 246 3.0 4.0 0.00 0.00 0.00 52 1021.5
20260508052502 41 244 3.0 4.0 0.00 0.00 0.00 52 1021.6
20260508051730 42 229 2.0 4.0 0.00 0.00 0.00 51 1021.7
20260508051229 42 234 2.0 4.0 0.00 0.00 0.00 51 1021.6
20260508050729 42 238 3.0 4.0 0.00 0.00 0.00 50 1021.7
20260508050227 42 217 3.0 4.0 0.00 0.00 0.00 50 1021.5
20260508045958 42 236 3.0 4.0 0.00 0.00 0.00 48 1021.6
20260508045224 42 203 3.0 4.0 0.00 0.00 0.00 48 1021.5
20260508044725 42 216 2.0 4.0 0.00 0.00 0.00 48 1021.6
20260508044229 43 223 1.0 3.0 0.00 0.00 0.00 47 1021.7
20260508044225 43 203 1.0 3.0 0.00 0.00 0.00 47 1021.6
20260508043225 43 206 0.0 3.0 0.00 0.00 0.00 47 1021.7
20260508042724 43 169 1.0 5.0 0.00 0.00 0.00 47 1021.6
20260508042224 43 167 2.0 5.0 0.00 0.00 0.00 48 1021.7
20260508041718 43 175 3.0 6.0 0.00 0.00 0.00 47 1021.5
20260508041217 44 212 4.0 7.0 0.00 0.00 0.00 45 1021.6
20260508040717 43 205 4.0 7.0 0.00 0.00 0.00 45 1021.6
20260508040217 43 203 3.0 7.0 0.00 0.00 0.00 45 1021.5
20260508035716 43 254 3.0 5.0 0.00 0.00 0.00 46 1021.5
20260508035216 43 254 3.0 7.0 0.00 0.00 0.00 46 1021.5
20260508034717 43 136 4.0 7.0 0.00 0.00 0.00 44 1021.2
20260508034215 43 192 5.0 9.0 0.00 0.00 0.00 43 1021.2
20260508033717 42 203 5.0 9.0 0.00 0.00 0.00 45 1021.2
20260508033442 42 254 4.0 7.0 0.00 0.00 0.00 46 1021.2
20260508032712 42 251 2.0 6.0 0.00 0.00 0.00 45 1021.1
20260508032212 43 190 2.0 4.0 0.00 0.00 0.00 45 1021.0
20260508031712 43 192 2.0 5.0 0.00 0.00 0.00 43 1021.0
20260508031211 43 191 2.0 5.0 0.00 0.00 0.00 43 1020.8
20260508030713 44 216 2.0 6.0 0.00 0.00 0.00 42 1020.8
20260508030208 44 177 3.0 6.0 0.00 0.00 0.00 42 1020.7
20260508025708 45 221 3.0 6.0 0.00 0.00 0.00 41 1020.7
20260508025209 46 216 2.0 5.0 0.00 0.00 0.00 38 1020.6
20260508024708 46 147 2.0 5.0 0.00 0.00 0.00 38 1020.4
20260508024208 46 34 2.0 4.0 0.00 0.00 0.00 38 1020.4
20260508023709 46 348 1.0 3.0 0.00 0.00 0.00 37 1020.3
20260508023203 47 340 1.0 3.0 0.00 0.00 0.00 36 1020.3
20260508022704 48 5 1.0 3.0 0.00 0.00 0.00 34 1020.2
20260508022205 49 305 2.0 3.0 0.00 0.00 0.00 34 1020.2
20260508021704 50 24 2.0 4.0 0.00 0.00 0.00 33 1020.0
20260508021203 51 317 2.0 4.0 0.00 0.00 0.00 32 1020.2
20260508020705 51 335 2.0 6.0 0.00 0.00 0.00 31 1020.0
20260508020205 51 331 2.0 5.0 0.00 0.00 0.00 31 1020.0
20260508020200 51 270 2.0 6.0 0.00 0.00 0.00 31 1020.0
20260508015200 52 335 2.0 5.0 0.00 0.00 0.00 31 1019.9
20260508014659 52 317 2.0 6.0 0.00 0.00 0.00 30 1019.9
20260508014159 52 332 2.0 6.0 0.00 0.00 0.00 29 1019.9
20260508013701 53 355 2.0 6.0 0.00 0.00 0.00 29 1019.9
20260508013155 53 312 3.0 7.0 0.00 0.00 0.00 29 1019.8
20260508012927 54 322 4.0 9.0 0.00 0.00 0.00 29 1019.8
20260508012154 54 318 6.0 10.0 0.00 0.00 0.00 28 1019.7
20260508011654 55 19 7.0 12.0 0.00 0.00 0.00 27 1019.7
20260508011155 55 46 7.0 12.0 0.00 0.00 0.00 27 1019.7
20260508010655 56 350 6.0 11.0 0.00 0.00 0.00 27 1019.7
20260508010650 56 12 6.0 12.0 0.00 0.00 0.00 27 1019.7
20260508005654 56 47 7.0 16.0 0.00 0.00 0.00 26 1019.7
20260508005649 56 19 7.0 12.0 0.00 0.00 0.00 27 1019.7
20260508005149 56 15 7.0 16.0 0.00 0.00 0.00 27 1019.7
20260508004148 57 5 8.0 18.0 0.00 0.00 0.00 26 1019.7
20260508003647 58 338 8.0 18.0 0.00 0.00 0.00 25 1019.7
20260508003147 58 44 7.0 13.0 0.00 0.00 0.00 24 1019.5
20260508002643 58 43 7.0 15.0 0.00 0.00 0.00 25 1019.5
20260508002141 58 5 8.0 16.0 0.00 0.00 0.00 25 1019.4
20260508001641 59 330 6.0 16.0 0.00 0.00 0.00 24 1019.7
20260508001412 59 11 5.0 14.0 0.00 0.00 0.00 24 1019.4
20260508000641 58 327 6.0 20.0 0.00 0.00 0.00 23 1019.5
20260508000141 58 32 8.0 20.0 0.00 0.00 0.00 24 1019.5
20260507235642 59 35 8.0 18.0 0.00 0.00 0.00 23 1019.4
20260507235137 59 27 5.0 22.0 0.00 0.00 0.00 23 1019.4
20260507234908 60 98 3.0 22.0 0.00 0.00 0.00 23 1019.4
20260507234137 59 338 5.0 12.0 0.00 0.00 0.00 23 1019.4
20260507233637 59 349 6.0 26.0 0.00 0.00 0.00 23 1019.5
20260507233137 60 320 5.0 26.0 0.00 0.00 0.00 23 1019.5
20260507232643 60 5 5.0 12.0 0.00 0.00 0.00 24 1019.5
20260507232638 60 269 5.0 12.0 0.00 0.00 0.00 24 1019.5
20260507231633 60 250 5.0 12.0 0.00 0.00 0.00 22 1019.5
20260507231131 60 355 6.0 15.0 0.00 0.00 0.00 23 1019.5
20260507230901 60 326 8.0 22.0 0.00 0.00 0.00 23 1019.7
20260507230131 61 295 10.0 22.0 0.00 0.00 0.00 23 1019.5
20260507225627 60 233 9.0 18.0 0.00 0.00 0.00 22 1019.4
20260507225128 60 307 8.0 18.0 0.00 0.00 0.00 23 1019.5
20260507224623 60 325 8.0 21.0 0.00 0.00 0.00 24 1019.5
20260507224122 59 281 7.0 21.0 0.00 0.00 0.00 23 1019.5
20260507223623 58 290 9.0 23.0 0.00 0.00 0.00 23 1019.5
20260507223122 58 281 12.0 24.0 0.00 0.00 0.00 23 1019.8
20260507222622 60 237 9.0 24.0 0.00 0.00 0.00 21 1019.7
20260507222122 60 294 7.0 14.0 0.00 0.00 0.00 21 1019.5
20260507221616 60 28 7.0 16.0 0.00 0.00 0.00 24 1019.7
20260507221116 61 306 7.0 16.0 0.00 0.00 0.00 22 1019.5
20260507220616 60 65 7.0 13.0 0.00 0.00 0.00 23 1019.5
20260507220116 61 36 7.0 15.0 0.00 0.00 0.00 22 1019.4
20260507215616 61 171 6.0 15.0 0.00 0.00 0.00 20 1019.5
20260507215116 61 33 6.0 16.0 0.00 0.00 0.00 22 1019.5
20260507214841 61 202 8.0 17.0 0.00 0.00 0.00 22 1019.7
20260507214109 61 268 7.0 17.0 0.00 0.00 0.00 19 1019.5
20260507213609 61 355 5.0 12.0 0.00 0.00 0.00 22 1019.7
20260507213110 61 109 5.0 11.0 0.00 0.00 0.00 20 1019.7
20260507212610 61 355 7.0 12.0 0.00 0.00 0.00 20 1019.8
20260507212110 61 312 6.0 13.0 0.00 0.00 0.00 20 1019.9
20260507211609 61 32 6.0 17.0 0.00 0.00 0.00 21 1019.9
20260507211605 61 284 6.0 17.0 0.00 0.00 0.00 21 1019.9
20260507210604 61 308 6.0 16.0 0.00 0.00 0.00 22 1019.9
20260507210336 61 335 6.0 14.0 0.00 0.00 0.00 21 1020.0
20260507205604 60 0 7.0 16.0 0.00 0.00 0.00 22 1020.0
20260507205104 61 355 8.0 16.0 0.00 0.00 0.00 23 1020.0
20260507204559 61 303 7.0 15.0 0.00 0.00 0.00 23 1020.0
20260507204100 60 44 6.0 15.0 0.00 0.00 0.00 21 1020.2
20260507203830 60 32 5.0 15.0 0.00 0.00 0.00 22 1020.0
20260507203100 60 291 7.0 17.0 0.00 0.00 0.00 19 1020.3
20260507202558 60 33 7.0 17.0 0.00 0.00 0.00 21 1020.3
20260507202057 60 327 8.0 14.0 0.00 0.00 0.00 20 1020.4
20260507201551 60 27 8.0 14.0 0.00 0.00 0.00 20 1020.4
20260507201052 59 328 9.0 18.0 0.00 0.00 0.00 23 1020.6
20260507200823 59 278 9.0 18.0 0.00 0.00 0.00 21 1020.4
20260507200052 59 263 9.0 25.0 0.00 0.00 0.00 22 1020.6
20260507195552 60 44 9.0 25.0 0.00 0.00 0.00 22 1020.6
20260507195051 59 259 8.0 17.0 0.00 0.00 0.00 22 1020.6
20260507194549 60 294 8.0 17.0 0.00 0.00 0.00 22 1020.7
20260507194322 60 313 7.0 15.0 0.00 0.00 0.00 24 1020.6
20260507193550 59 17 6.0 15.0 0.00 0.00 0.00 24 1020.8
20260507193050 59 92 5.0 13.0 0.00 0.00 0.00 23 1020.7
20260507192550 59 57 5.0 12.0 0.00 0.00 0.00 23 1020.8
20260507192050 59 247 5.0 12.0 0.00 0.00 0.00 24 1021.1
20260507191550 59 11 6.0 15.0 0.00 0.00 0.00 21 1021.0
20260507191047 59 31 6.0 15.0 0.00 0.00 0.00 22 1021.0
20260507190820 59 9 6.0 14.0 0.00 0.00 0.00 22 1021.1
20260507190047 59 78 5.0 12.0 0.00 0.00 0.00 23 1021.0
20260507185547 58 32 4.0 12.0 0.00 0.00 0.00 22 1020.8
20260507185046 58 324 2.0 8.0 0.00 0.00 0.00 21 1021.0
20260507184818 58 309 3.0 8.0 0.00 0.00 0.00 22 1021.2
20260507184048 58 68 4.0 14.0 0.00 0.00 0.00 21 1021.2
20260507183547 56 123 5.0 10.0 0.00 0.00 0.00 20 1021.2
20260507183543 57 53 5.0 14.0 0.00 0.00 0.00 24 1021.2
20260507182543 56 140 5.0 10.0 0.00 0.00 0.00 21 1021.4
20260507182043 56 107 4.0 10.0 0.00 0.00 0.00 23 1021.4
20260507181543 55 101 5.0 13.0 0.00 0.01 0.00 21 1021.4
20260507181044 56 116 6.0 13.0 0.00 0.01 0.00 20 1021.5
20260507180544 56 217 5.0 12.0 0.00 0.01 0.00 22 1021.5
20260507180038 55 140 6.0 14.0 0.00 0.02 0.00 22 1021.6
20260507175538 55 178 6.0 14.0 0.00 0.02 0.00 21 1021.6
20260507175037 54 161 4.0 9.0 0.00 0.02 0.00 23 1021.7
20260507174536 54 198 3.0 7.0 0.00 0.02 0.00 23 1021.7
20260507174307 53 198 2.0 7.0 0.00 0.02 0.00 22 1022.0
20260507173537 52 300 2.0 5.0 0.00 0.02 0.00 22 1022.0
20260507173037 52 196 3.0 9.0 0.00 0.02 0.00 22 1022.1
20260507172537 52 5 4.0 9.0 0.00 0.02 0.00 22 1022.1
20260507172310 52 244 3.0 7.0 0.00 0.02 0.00 24 1022.3
20260507171536 51 255 3.0 7.0 0.00 0.02 0.00 23 1022.3
20260507171036 51 305 3.0 8.0 0.00 0.02 0.00 25 1022.5
20260507170538 50 190 4.0 9.0 0.00 0.02 0.00 25 1022.5
20260507170037 49 226 5.0 11.0 0.00 0.02 0.00 25 1022.7
20260507165803 49 161 5.0 11.0 0.00 0.02 0.00 26 1022.7
20260507165034 48 216 5.0 9.0 0.00 0.02 0.00 27 1022.8
20260507164533 47 213 4.0 9.0 0.00 0.02 0.00 28 1022.9
20260507164033 46 193 4.0 9.0 0.00 0.02 0.00 25 1022.9
20260507163534 46 228 4.0 9.0 0.00 0.02 0.00 26 1023.1
20260507163301 45 134 3.0 7.0 0.00 0.02 0.00 26 1023.1
20260507163136 45 152 3.0 8.0 0.00 0.02 0.00 27 1022.9
20260507162029 44 180 4.0 8.0 0.00 0.02 0.00 27 1023.2